Historyczne dane pomiarowe

Dodano dane terminowe – wersja testowa.

Dane z okresu 1951-2019

Wersja bazy: 1.34 [2019-03-16, lista zmian], aktualizacja planowana na 2019-04-15

Dane meteo z obszaru Polski uzyskane na podstawie danych udostępnionych przez Instytut Meteorologii i Gospodarki Wodnej – Państwowy Instytut Badawczy.

 

Wybierz Datę:    

       

TemperaturaWilgotnośćWiatrCiśnienieOpadyŚniegCzas trwania zjawisk
 Stacja t tx tn tng RH VA  wxwx mslp ppp RRR   cm mm wxwxwxwxwxwxwx
2019-07-25 25.2 33.3 15.0 12.9-- 2.3----- 0.0------------
2019-07-24 22.9 28.3 14.1 12.2-- 3.3----- 0.0------------
2019-07-23 20.0 24.1 15.9 16.0-- 7.7----- 0.0------------
2019-07-22 20.1 25.8 12.4 11.4-- 7.3----- 2.5------------
2019-07-21 21.2 26.6 16.8 16.3-- 6.0----- 2.5------------
2019-07-20 23.1 29.6 15.5 13.3-- 3.3----- 2.2------------
2019-07-19 20.7 28.6 10.4 8.7-- 6.7----- 0.0------------
2019-07-18 18.4 26.6 7.8 5.9-- 4.0----- 0.0------------
2019-07-17 17.7 22.3 12.3 10.4-- 5.0----- 0.0------------
2019-07-16 16.8 20.9 12.3 11.2-- 8.0----- 0.0------------
2019-07-15 16.5 24.0 8.8 7.5-- 5.3----- 0.0------------
2019-07-14 16.6 23.6 10.2 9.2-- 6.0----- 1.1------------
2019-07-13 17.4 20.8 14.0 12.9-- 7.7----- 1.7------------
2019-07-12 17.5 23.3 10.8 8.0-- 7.3----- 0.3------------
2019-07-11 19.1 24.8 12.3 11.7-- 4.7----- 0.0------------
2019-07-10 15.3 19.3 10.3 8.9-- 6.7----- 3.2------------
2019-07-09 15.5 20.4 7.8 5.3-- 6.3----- 0.0------------
2019-07-08 13.7 18.0 8.1 7.0-- 7.0----- 0.0------------
2019-07-07 16.4 22.3 12.3 12.1-- 7.7----- 0.0------------
2019-07-06 20.3 27.6 14.1 13.7-- 7.7----- 7.6------------
2019-07-05 17.5 21.3 11.1 8.3-- 8.0----- 0.0------------
2019-07-04 16.3 23.3 6.9 4.7-- 4.7----- 0.0------------
2019-07-03 16.5 22.5 10.4 6.8-- 2.7----- 0.0------------
2019-07-02 21.0 27.0 16.3 14.2-- 5.7----- 0.0------------
2019-07-01 24.8 33.0 16.5 14.1-- 5.0----- 0.0------------
2019-06-30 26.3 37.0 14.0 10.3-- 0.0----- 0.0------------
2019-06-29 21.9 29.8 11.6 9.2-- 3.3----- 0.0------------
2019-06-28 18.5 25.3 9.4 7.5-- 6.0----- 0.0------------
2019-06-27 24.3 35.0 19.1 18.5-- 1.3----- 0.0------------
2019-06-26 29.6 37.3 19.7 16.2-- 3.0----- 0.9------------
2019-06-25 24.8 33.3 15.7 12.9-- 4.0----- 0.0------------
2019-06-24 21.3 29.6 11.5 9.5-- 3.0----- 0.0------------
2019-06-23 20.0 25.9 13.7 13.2-- 5.0----- 0.0------------
2019-06-22 20.9 25.8 14.8 14.2-- 3.7----- 0.0------------
2019-06-21 21.8 27.0 16.0 14.3-- 5.7----- 4.4------------
2019-06-20 24.4 32.3 17.0 15.1-- 5.0----- 1.2------------
2019-06-19 23.8 31.3 14.8 12.7-- 2.7----- 0.0------------
2019-06-18 20.7 27.2 13.5 11.1-- 5.3----- 0.0------------
2019-06-17 19.6 25.8 11.6 10.5-- 3.0----- 0.0------------
2019-06-16 21.3 25.7 18.5 17.8-- 5.7----- 0.0------------
2019-06-15 25.8 34.8 18.9 18.3-- 5.7----- 8.2------------
2019-06-14 23.0 28.8 15.0 12.7-- 3.7----- 0.0------------
2019-06-13 22.9 30.4 18.2 17.1-- 6.7----- 0.8------------
2019-06-12 27.1 33.6 18.8 14.7-- 2.0----- 0.0------------
2019-06-11 27.0 34.2 18.4 15.7-- 1.0----- 0.0------------
2019-06-10 24.0 31.6 15.3 14.5-- 6.0----- 0.0------------
2019-06-09 18.1 25.8 7.4 4.4-- 3.0----- 0.0------------
2019-06-08 19.6 23.2 15.2 11.5-- 5.3----- 0.0------------
2019-06-07 20.8 25.2 16.8 13.7-- 6.7----- 0.0------------
2019-06-06 22.2 28.3 16.2 14.4-- 4.3----- 0.0------------
2019-06-05 23.5 29.4 15.9 12.3-- 3.7----- 0.0------------
2019-06-04 23.5 29.8 14.6 10.1-- 1.7----- 0.0------------
2019-06-03 22.6 28.8 14.6 10.3-- 1.0----- 0.0------------
2019-06-02 20.9 27.8 13.8 9.7-- 4.0----- 0.0------------
2019-06-01 19.1 25.1 13.1 10.0-- 5.0----- 0.0------------
2019-05-31 15.7 23.2 6.9 3.4-- 6.0----- 0.0------------
2019-05-30 13.2 18.3 6.2 4.3-- 2.3----- 0.0------------
2019-05-29 12.4 16.7 8.8 7.7-- 6.0----- 0.0------------
2019-05-28 16.0 20.9 13.6 13.3-- 8.0----- 9.1------------
2019-05-27 18.3 24.6 11.0 7.6-- 6.0----- 11.2------------
89.5 ms

 

Źródłem pochodzenia danych jest Instytut Meteorologii i Gospodarki Wodnej – Państwowy Instytut Badawczy. Dane Instytutu Meteorologii i Gospodarki Wodnej – Państwowego Instytutu Badawczego zostały przetworzone.

Dane źródłowe można odnaleźć na stronie https://dane.imgw.pl